This is the latest recevied weather packets stored in our database for station/object W0SS-13. If no packets are shown the sender has not sent any weather packets the latest 10 day(s).
| Time | Temp. | Humidity | Pressure | Rain* | Wind** | Luminosity | Snow |
|---|---|---|---|---|---|---|---|
| 1777633198 | 2.78° C | 91% | 1019.9 hPa | 0 mm | - | 0 W/m² | - |
| 1777632895 | 2.78° C | 91% | 1020 hPa | 0 mm | - | 0 W/m² | - |
| 1777632591 | 2.78° C | 91% | 1020 hPa | 0 mm | - | 0 W/m² | - |
| 1777631984 | 2.78° C | 90% | 1019.8 hPa | 0 mm | - | 0 W/m² | - |
| 1777631683 | 2.78° C | 90% | 1019.7 hPa | 0 mm | - | 0 W/m² | - |
| 1777631380 | 2.78° C | 90% | 1019.8 hPa | 0 mm | - | 0 W/m² | - |
| 1777631077 | 3.33° C | 90% | 1019.9 hPa | 0 mm | - | 0 W/m² | - |
| 1777630773 | 3.33° C | 90% | 1019.9 hPa | 0 mm | - | 0 W/m² | - |
| 1777630470 | 3.33° C | 90% | 1020.4 hPa | 0 mm | - | 0 W/m² | - |
| 1777630167 | 3.33° C | 90% | 1020 hPa | 0 mm | - | 0 W/m² | - |
| 1777629865 | 2.78° C | 89% | 1020.2 hPa | 0 mm | - | 0 W/m² | - |
| 1777629561 | 3.33° C | 88% | 1020.1 hPa | 0 mm | - | 0 W/m² | - |
| 1777628954 | 3.33° C | 88% | 1020 hPa | 0 mm | - | 0 W/m² | - |
| 1777628651 | 2.78° C | 88% | 1019.9 hPa | 0 mm | - | 0 W/m² | - |
| 1777628347 | 2.22° C | 87% | 1019.9 hPa | 0 mm | - | 0 W/m² | - |
| 1777628043 | 2.78° C | 87% | 1019.7 hPa | 0 mm | - | 0 W/m² | - |
| 1777627743 | 2.78° C | 87% | 1019.8 hPa | 0 mm | - | 0 W/m² | - |
| 1777627442 | 2.78° C | 86% | 1019.9 hPa | 0 mm | - | 0 W/m² | - |
| 1777627138 | 3.33° C | 86% | 1020.1 hPa | 0 mm | - | 0 W/m² | - |
| 1777626835 | 3.89° C | 86% | 1019.9 hPa | 0 mm | - | 0 W/m² | - |
| 1777626531 | 3.89° C | 86% | 1020.1 hPa | 0 mm | - | 0 W/m² | - |
| 1777626226 | 3.89° C | 84% | 1020.2 hPa | 0 mm | - | 0 W/m² | - |
| 1777625924 | 4.44° C | 84% | 1020.1 hPa | 0 mm | - | 0 W/m² | - |
| 1777625620 | 4.44° C | 83% | 1019.8 hPa | 0 mm | - | 0 W/m² | - |
| 1777625316 | 4.44° C | 82% | 1019.8 hPa | 0 mm | - | 0 W/m² | - |
* Rain latest hour (hover to see other rain measurements)
** Current wind speed in m/s (hover to see current wind gust speed)